owner,sensor,date,latitude,longitude,air_pressure(mBar),qcFlag 
COMPS,ioos:station:USF.COMPS:C13:1,2019-05-10T16:35:00,26.0630,-83.0730,1015.47,11111222 
COMPS,ioos:station:USF.COMPS:C13:1,2019-05-10T17:35:00,26.0630,-83.0730,1015.0,11111222 
COMPS,ioos:station:USF.COMPS:C13:1,2019-05-10T18:35:00,26.0630,-83.0730,1014.9,11111222 
COMPS,ioos:station:USF.COMPS:C13:1,2019-05-10T19:35:00,26.0630,-83.0730,1014.9,11111222 
COMPS,ioos:station:USF.COMPS:C13:1,2019-05-10T20:35:00,26.0630,-83.0730,1014.53,11111222 
COMPS,ioos:station:USF.COMPS:C13:1,2019-05-10T21:35:00,26.0630,-83.0730,1014.36,11111222 
COMPS,ioos:station:USF.COMPS:C13:1,2019-05-10T22:35:00,26.0630,-83.0730,1013.92,11111222 
COMPS,ioos:station:USF.COMPS:C13:1,2019-05-10T23:35:00,26.0630,-83.0730,1014.7,11111222 
COMPS,ioos:station:USF.COMPS:C13:1,2019-05-11T00:35:00,26.0630,-83.0730,1014.78,11111222 
COMPS,ioos:station:USF.COMPS:C13:1,2019-05-11T01:35:00,26.0630,-83.0730,1015.74,11111222 
COMPS,ioos:station:USF.COMPS:C13:1,2019-05-11T02:35:00,26.0630,-83.0730,1015.95,11111222 
COMPS,ioos:station:USF.COMPS:C13:1,2019-05-11T03:35:00,26.0630,-83.0730,1016.26,11111222 
COMPS,ioos:station:USF.COMPS:C13:1,2019-05-11T04:35:00,26.0630,-83.0730,1015.84,11111222 
COMPS,ioos:station:USF.COMPS:C13:1,2019-05-11T05:35:00,26.0630,-83.0730,1015.67,11111222 
COMPS,ioos:station:USF.COMPS:C13:1,2019-05-11T06:35:00,26.0630,-83.0730,1014.78,11111222 
COMPS,ioos:station:USF.COMPS:C13:1,2019-05-11T07:35:00,26.0630,-83.0730,1014.56,11111222 
COMPS,ioos:station:USF.COMPS:C13:1,2019-05-11T08:35:00,26.0630,-83.0730,1013.98,11111222 
COMPS,ioos:station:USF.COMPS:C13:1,2019-05-11T09:35:00,26.0630,-83.0730,1014.51,11111222 
COMPS,ioos:station:USF.COMPS:C13:1,2019-05-11T10:35:00,26.0630,-83.0730,1014.84,11111222 
COMPS,ioos:station:USF.COMPS:C13:1,2019-05-11T11:35:00,26.0630,-83.0730,1014.87,11111222 
COMPS,ioos:station:USF.COMPS:C13:1,2019-05-11T12:35:00,26.0630,-83.0730,1015.01,11111222 
COMPS,ioos:station:USF.COMPS:C13:1,2019-05-13T13:35:00,26.0630,-83.0730,1013.68,11111222 
COMPS,ioos:station:USF.COMPS:C13:1,2019-05-13T14:35:00,26.0630,-83.0730,1013.73,11111222 
COMPS,ioos:station:USF.COMPS:C13:1,2019-05-13T15:35:00,26.0630,-83.0730,1013.53,11111222 
COMPS,ioos:station:USF.COMPS:C13:1,2019-05-13T16:35:00,26.0630,-83.0730,1012.99,11111222 
COMPS,ioos:station:USF.COMPS:C13:1,2019-05-13T17:35:00,26.0630,-83.0730,1013.61,11111222 
COMPS,ioos:station:USF.COMPS:C13:1,2019-05-13T18:35:00,26.0630,-83.0730,1013.23,11111222 
COMPS,ioos:station:USF.COMPS:C13:1,2019-05-13T19:35:00,26.0630,-83.0730,1013.2,11111222 
COMPS,ioos:station:USF.COMPS:C13:1,2019-05-13T20:35:00,26.0630,-83.0730,1013.51,11111222 
COMPS,ioos:station:USF.COMPS:C13:1,2019-05-13T21:35:00,26.0630,-83.0730,1013.65,11111222 
COMPS,ioos:station:USF.COMPS:C13:1,2019-05-13T22:35:00,26.0630,-83.0730,1013.73,11111222 
COMPS,ioos:station:USF.COMPS:C13:1,2019-05-13T23:35:00,26.0630,-83.0730,1013.79,11111222 
COMPS,ioos:station:USF.COMPS:C13:1,2019-05-14T00:35:00,26.0630,-83.0730,1012.9,11111222 
COMPS,ioos:station:USF.COMPS:C13:1,2019-05-14T01:35:00,26.0630,-83.0730,1011.96,11111222 
COMPS,ioos:station:USF.COMPS:C13:1,2019-05-14T02:35:00,26.0630,-83.0730,1013.05,11111222 
COMPS,ioos:station:USF.COMPS:C13:1,2019-05-14T03:35:00,26.0630,-83.0730,1013.67,11111222 
COMPS,ioos:station:USF.COMPS:C13:1,2019-05-14T04:35:00,26.0630,-83.0730,1013.46,11111222 
COMPS,ioos:station:USF.COMPS:C13:1,2019-05-14T05:35:00,26.0630,-83.0730,1013.18,11111222 
COMPS,ioos:station:USF.COMPS:C13:1,2019-05-14T06:35:00,26.0630,-83.0730,1012.61,11111222 
COMPS,ioos:station:USF.COMPS:C13:1,2019-05-14T07:35:00,26.0630,-83.0730,1012.76,11111222 
COMPS,ioos:station:USF.COMPS:C13:1,2019-05-14T08:35:00,26.0630,-83.0730,1013.18,11111222 
COMPS,ioos:station:USF.COMPS:C13:1,2019-05-14T09:35:00,26.0630,-83.0730,1013.3,11111222 
COMPS,ioos:station:USF.COMPS:C13:1,2019-05-14T10:35:00,26.0630,-83.0730,1013.51,11111222 
COMPS,ioos:station:USF.COMPS:C13:1,2019-05-14T11:35:00,26.0630,-83.0730,1013.62,11111222 
COMPS,ioos:station:USF.COMPS:C13:1,2019-05-14T12:35:00,26.0630,-83.0730,1014.3,11111222 
COMPS,ioos:station:USF.COMPS:C13:1,2019-05-14T13:35:00,26.0630,-83.0730,1015.09,11111222 
COMPS,ioos:station:USF.COMPS:C13:1,2019-05-14T14:35:00,26.0630,-83.0730,1015.73,11111222 
COMPS,ioos:station:USF.COMPS:C13:1,2019-05-14T15:35:00,26.0630,-83.0730,1016.18,11111222 
COMPS,ioos:station:USF.COMPS:C13:1,2019-05-14T16:35:00,26.0630,-83.0730,1015.89,11111222 
COMPS,ioos:station:USF.COMPS:C13:1,2019-05-14T17:35:00,26.0630,-83.0730,1015.43,11111222 
COMPS,ioos:station:USF.COMPS:C13:1,2019-05-14T18:35:00,26.0630,-83.0730,1014.57,11111222 
COMPS,ioos:station:USF.COMPS:C13:1,2019-05-14T19:35:00,26.0630,-83.0730,1013.81,11111222 
COMPS,ioos:station:USF.COMPS:C13:1,2019-05-14T20:35:00,26.0630,-83.0730,1014.15,11111222 
COMPS,ioos:station:USF.COMPS:C13:1,2019-05-14T21:35:00,26.0630,-83.0730,1013.52,11111222 
COMPS,ioos:station:USF.COMPS:C13:1,2019-05-14T22:35:00,26.0630,-83.0730,1012.63,11111222 
COMPS,ioos:station:USF.COMPS:C13:1,2019-05-14T23:35:00,26.0630,-83.0730,1012.58,11111222 
COMPS,ioos:station:USF.COMPS:C13:1,2019-05-15T00:35:00,26.0630,-83.0730,1013.29,11111222 
COMPS,ioos:station:USF.COMPS:C13:1,2019-05-15T01:35:00,26.0630,-83.0730,1014.75,11111222 
COMPS,ioos:station:USF.COMPS:C13:1,2019-05-15T02:35:00,26.0630,-83.0730,1015.55,11111222 
COMPS,ioos:station:USF.COMPS:C13:1,2019-05-15T03:35:00,26.0630,-83.0730,1015.22,11111222 
COMPS,ioos:station:USF.COMPS:C13:1,2019-05-15T04:35:00,26.0630,-83.0730,1013.31,11111222 
COMPS,ioos:station:USF.COMPS:C13:1,2019-05-15T05:35:00,26.0630,-83.0730,1014.79,11111222 
COMPS,ioos:station:USF.COMPS:C13:1,2019-05-15T06:35:00,26.0630,-83.0730,1014.43,11111222 
COMPS,ioos:station:USF.COMPS:C13:1,2019-05-15T07:35:00,26.0630,-83.0730,1014.04,11111222 
COMPS,ioos:station:USF.COMPS:C13:1,2019-05-15T08:35:00,26.0630,-83.0730,1013.84,11111222 
COMPS,ioos:station:USF.COMPS:C13:1,2019-05-15T09:35:00,26.0630,-83.0730,1013.82,11111222 
COMPS,ioos:station:USF.COMPS:C13:1,2019-05-15T10:35:00,26.0630,-83.0730,1013.54,11111222 
COMPS,ioos:station:USF.COMPS:C13:1,2019-05-15T11:35:00,26.0630,-83.0730,1014.31,11111222 
COMPS,ioos:station:USF.COMPS:C13:1,2019-05-15T12:35:00,26.0630,-83.0730,1014.9,11111222 
COMPS,ioos:station:USF.COMPS:C13:1,2019-05-15T13:35:00,26.0630,-83.0730,1015.63,11111222 
COMPS,ioos:station:USF.COMPS:C13:1,2019-05-15T14:35:00,26.0630,-83.0730,1015.78,11111222 
COMPS,ioos:station:USF.COMPS:C13:1,2019-05-15T15:35:00,26.0630,-83.0730,1015.84,11111222 
COMPS,ioos:station:USF.COMPS:C13:1,2019-05-15T16:35:00,26.0630,-83.0730,1015.86,11111222 
COMPS,ioos:station:USF.COMPS:C13:1,2019-05-15T17:35:00,26.0630,-83.0730,1015.22,11111222 
COMPS,ioos:station:USF.COMPS:C13:1,2019-05-15T18:35:00,26.0630,-83.0730,1014.89,11111222 
COMPS,ioos:station:USF.COMPS:C13:1,2019-05-15T19:35:00,26.0630,-83.0730,1014.42,11111222 
COMPS,ioos:station:USF.COMPS:C13:1,2019-05-15T20:35:00,26.0630,-83.0730,1014.2,11111222 
COMPS,ioos:station:USF.COMPS:C13:1,2019-05-15T21:35:00,26.0630,-83.0730,1013.85,11111222 
COMPS,ioos:station:USF.COMPS:C13:1,2019-05-15T22:35:00,26.0630,-83.0730,1014.07,11111222 
COMPS,ioos:station:USF.COMPS:C13:1,2019-05-15T23:35:00,26.0630,-83.0730,1014.21,11111222 
COMPS,ioos:station:USF.COMPS:C13:1,2019-05-16T00:35:00,26.0630,-83.0730,1014.34,11111222 
COMPS,ioos:station:USF.COMPS:C13:1,2019-05-16T01:35:00,26.0630,-83.0730,1014.74,11111222 
COMPS,ioos:station:USF.COMPS:C13:1,2019-05-16T02:35:00,26.0630,-83.0730,1015.29,11111222 
COMPS,ioos:station:USF.COMPS:C13:1,2019-05-16T03:35:00,26.0630,-83.0730,1015.6,11111222 
COMPS,ioos:station:USF.COMPS:C13:1,2019-05-16T04:35:00,26.0630,-83.0730,1015.56,11111222 
COMPS,ioos:station:USF.COMPS:C13:1,2019-05-16T05:35:00,26.0630,-83.0730,1015.28,11111222 
COMPS,ioos:station:USF.COMPS:C13:1,2019-05-16T06:35:00,26.0630,-83.0730,1014.66,11111222 
COMPS,ioos:station:USF.COMPS:C13:1,2019-05-16T07:35:00,26.0630,-83.0730,1014.48,11111222 
COMPS,ioos:station:USF.COMPS:C13:1,2019-05-16T08:35:00,26.0630,-83.0730,1014.4,11111222 
COMPS,ioos:station:USF.COMPS:C13:1,2019-05-16T09:35:00,26.0630,-83.0730,1014.36,11111222 
COMPS,ioos:station:USF.COMPS:C13:1,2019-05-16T10:35:00,26.0630,-83.0730,1014.82,11111222 
COMPS,ioos:station:USF.COMPS:C13:1,2019-05-16T11:35:00,26.0630,-83.0730,1015.13,11111222 
COMPS,ioos:station:USF.COMPS:C13:1,2019-05-16T12:35:00,26.0630,-83.0730,1015.78,11111222 
COMPS,ioos:station:USF.COMPS:C13:1,2019-05-16T13:35:00,26.0630,-83.0730,1016.31,11111222 
COMPS,ioos:station:USF.COMPS:C13:1,2019-05-16T14:35:00,26.0630,-83.0730,1016.57,11111222 
COMPS,ioos:station:USF.COMPS:C13:1,2019-05-16T15:35:00,26.0630,-83.0730,1016.71,11111222 
COMPS,ioos:station:USF.COMPS:C13:1,2019-05-16T16:35:00,26.0630,-83.0730,1016.65,11111222 
COMPS,ioos:station:USF.COMPS:C13:1,2019-05-16T17:35:00,26.0630,-83.0730,1016.36,11111222 
COMPS,ioos:station:USF.COMPS:C13:1,2019-05-16T18:35:00,26.0630,-83.0730,1015.84,11111222 
COMPS,ioos:station:USF.COMPS:C13:1,2019-05-16T19:35:00,26.0630,-83.0730,1015.14,11111222 
COMPS,ioos:station:USF.COMPS:C13:1,2019-05-16T20:35:00,26.0630,-83.0730,1014.54,11111222 
COMPS,ioos:station:USF.COMPS:C13:1,2019-05-16T21:35:00,26.0630,-83.0730,1014.53,11111222 
COMPS,ioos:station:USF.COMPS:C13:1,2019-05-16T22:35:00,26.0630,-83.0730,1014.51,11111222 
COMPS,ioos:station:USF.COMPS:C13:1,2019-05-16T23:35:00,26.0630,-83.0730,1014.32,11111222 
COMPS,ioos:station:USF.COMPS:C13:1,2019-05-17T00:35:00,26.0630,-83.0730,1014.57,11111222 
COMPS,ioos:station:USF.COMPS:C13:1,2019-05-17T01:35:00,26.0630,-83.0730,1015.17,11111222 
COMPS,ioos:station:USF.COMPS:C13:1,2019-05-17T02:35:00,26.0630,-83.0730,1015.62,11111222 
COMPS,ioos:station:USF.COMPS:C13:1,2019-05-17T03:35:00,26.0630,-83.0730,1015.61,11111222 
COMPS,ioos:station:USF.COMPS:C13:1,2019-05-17T04:35:00,26.0630,-83.0730,1015.48,11111222 
COMPS,ioos:station:USF.COMPS:C13:1,2019-05-17T05:35:00,26.0630,-83.0730,1015.15,11111222 
COMPS,ioos:station:USF.COMPS:C13:1,2019-05-17T06:35:00,26.0630,-83.0730,1014.74,11111222 
COMPS,ioos:station:USF.COMPS:C13:1,2019-05-17T07:35:00,26.0630,-83.0730,1014.83,11111222 
COMPS,ioos:station:USF.COMPS:C13:1,2019-05-17T08:35:00,26.0630,-83.0730,1014.9,11111222 
COMPS,ioos:station:USF.COMPS:C13:1,2019-05-17T09:35:00,26.0630,-83.0730,1014.97,11111222 
COMPS,ioos:station:USF.COMPS:C13:1,2019-05-17T10:35:00,26.0630,-83.0730,1015.43,11111222 
COMPS,ioos:station:USF.COMPS:C13:1,2019-05-17T11:35:00,26.0630,-83.0730,1015.96,11111222 
COMPS,ioos:station:USF.COMPS:C13:1,2019-05-17T12:35:00,26.0630,-83.0730,1016.32,11111222 
COMPS,ioos:station:USF.COMPS:C13:1,2019-05-17T13:35:00,26.0630,-83.0730,1016.56,11111222 
COMPS,ioos:station:USF.COMPS:C13:1,2019-05-17T14:35:00,26.0630,-83.0730,1016.54,11111222 
COMPS,ioos:station:USF.COMPS:C13:1,2019-05-17T15:35:00,26.0630,-83.0730,1016.75,11111222 
COMPS,ioos:station:USF.COMPS:C13:1,2019-05-17T16:35:00,26.0630,-83.0730,1016.59,11111222 
COMPS,ioos:station:USF.COMPS:C13:1,2019-05-17T17:35:00,26.0630,-83.0730,1016.55,11111222 
COMPS,ioos:station:USF.COMPS:C13:1,2019-05-17T18:35:00,26.0630,-83.0730,1016.23,11111222 
COMPS,ioos:station:USF.COMPS:C13:1,2019-05-17T19:35:00,26.0630,-83.0730,1015.98,11111222 
COMPS,ioos:station:USF.COMPS:C13:1,2019-05-17T20:35:00,26.0630,-83.0730,1015.47,11111222 
COMPS,ioos:station:USF.COMPS:C13:1,2019-05-17T21:35:00,26.0630,-83.0730,1015.07,11111222 
COMPS,ioos:station:USF.COMPS:C13:1,2019-05-17T22:35:00,26.0630,-83.0730,1014.74,11111222 
COMPS,ioos:station:USF.COMPS:C13:1,2019-05-17T23:35:00,26.0630,-83.0730,1014.8,11111222 
COMPS,ioos:station:USF.COMPS:C13:1,2019-05-18T00:35:00,26.0630,-83.0730,1015.07,11111222 
COMPS,ioos:station:USF.COMPS:C13:1,2019-05-18T01:35:00,26.0630,-83.0730,1015.2,11111222 
COMPS,ioos:station:USF.COMPS:C13:1,2019-05-18T02:35:00,26.0630,-83.0730,1015.53,11111222 
COMPS,ioos:station:USF.COMPS:C13:1,2019-05-18T03:35:00,26.0630,-83.0730,1015.61,11111222 
COMPS,ioos:station:USF.COMPS:C13:1,2019-05-18T04:35:00,26.0630,-83.0730,1015.52,11111222 
COMPS,ioos:station:USF.COMPS:C13:1,2019-05-18T05:35:00,26.0630,-83.0730,1015.41,11111222 
COMPS,ioos:station:USF.COMPS:C13:1,2019-05-18T06:35:00,26.0630,-83.0730,1015.03,11111222 
COMPS,ioos:station:USF.COMPS:C13:1,2019-05-18T07:35:00,26.0630,-83.0730,1014.72,11111222 
COMPS,ioos:station:USF.COMPS:C13:1,2019-05-18T08:35:00,26.0630,-83.0730,1014.81,11111222 
COMPS,ioos:station:USF.COMPS:C13:1,2019-05-18T09:35:00,26.0630,-83.0730,1014.96,11111222 
COMPS,ioos:station:USF.COMPS:C13:1,2019-05-18T10:35:00,26.0630,-83.0730,1015.33,11111222 
COMPS,ioos:station:USF.COMPS:C13:1,2019-05-18T11:35:00,26.0630,-83.0730,1015.63,11111222 
COMPS,ioos:station:USF.COMPS:C13:1,2019-05-18T12:35:00,26.0630,-83.0730,1016.01,11111222 
COMPS,ioos:station:USF.COMPS:C13:1,2019-05-18T13:35:00,26.0630,-83.0730,1016.25,11111222 
COMPS,ioos:station:USF.COMPS:C13:1,2019-05-18T14:35:00,26.0630,-83.0730,1016.51,11111222 
COMPS,ioos:station:USF.COMPS:C13:1,2019-05-18T15:35:00,26.0630,-83.0730,1016.88,11111222 
COMPS,ioos:station:USF.COMPS:C13:1,2019-05-18T16:35:00,26.0630,-83.0730,1016.4,11111222 
COMPS,ioos:station:USF.COMPS:C13:1,2019-05-18T17:35:00,26.0630,-83.0730,1016.27,11111222 
COMPS,ioos:station:USF.COMPS:C13:1,2019-05-18T18:35:00,26.0630,-83.0730,1015.78,11111222 
COMPS,ioos:station:USF.COMPS:C13:1,2019-05-18T19:35:00,26.0630,-83.0730,1015.28,11111222 
COMPS,ioos:station:USF.COMPS:C13:1,2019-05-18T20:35:00,26.0630,-83.0730,1014.7,11111222 
COMPS,ioos:station:USF.COMPS:C13:1,2019-05-18T21:35:00,26.0630,-83.0730,1014.31,11111222 
COMPS,ioos:station:USF.COMPS:C13:1,2019-05-18T22:35:00,26.0630,-83.0730,1014.44,11111222 
COMPS,ioos:station:USF.COMPS:C13:1,2019-05-18T23:35:00,26.0630,-83.0730,1014.53,11111222 
COMPS,ioos:station:USF.COMPS:C13:1,2019-05-19T00:35:00,26.0630,-83.0730,1014.76,11111222 
COMPS,ioos:station:USF.COMPS:C13:1,2019-05-19T01:35:00,26.0630,-83.0730,1015.01,11111222 
COMPS,ioos:station:USF.COMPS:C13:1,2019-05-19T02:35:00,26.0630,-83.0730,1015.73,11111222 
COMPS,ioos:station:USF.COMPS:C13:1,2019-05-19T03:35:00,26.0630,-83.0730,1015.68,11111222 
COMPS,ioos:station:USF.COMPS:C13:1,2019-05-19T04:35:00,26.0630,-83.0730,1015.39,11111222 
COMPS,ioos:station:USF.COMPS:C13:1,2019-05-19T05:35:00,26.0630,-83.0730,1015.2,11111222 
COMPS,ioos:station:USF.COMPS:C13:1,2019-05-19T06:35:00,26.0630,-83.0730,1014.88,11111222 
COMPS,ioos:station:USF.COMPS:C13:1,2019-05-19T07:35:00,26.0630,-83.0730,1014.84,11111222 
COMPS,ioos:station:USF.COMPS:C13:1,2019-05-19T08:35:00,26.0630,-83.0730,1014.79,11111222 
COMPS,ioos:station:USF.COMPS:C13:1,2019-05-19T09:35:00,26.0630,-83.0730,1014.85,11111222 
COMPS,ioos:station:USF.COMPS:C13:1,2019-05-19T10:35:00,26.0630,-83.0730,1014.74,11111222 
COMPS,ioos:station:USF.COMPS:C13:1,2019-05-19T11:35:00,26.0630,-83.0730,1015.07,11111222 
COMPS,ioos:station:USF.COMPS:C13:1,2019-05-19T12:35:00,26.0630,-83.0730,1015.42,11111222 
COMPS,ioos:station:USF.COMPS:C13:1,2019-05-19T13:35:00,26.0630,-83.0730,1015.9,11111222 
COMPS,ioos:station:USF.COMPS:C13:1,2019-05-19T14:35:00,26.0630,-83.0730,1016.14,11111222 
COMPS,ioos:station:USF.COMPS:C13:1,2019-05-19T15:35:00,26.0630,-83.0730,1016.57,11111222 
COMPS,ioos:station:USF.COMPS:C13:1,2019-05-19T16:35:00,26.0630,-83.0730,1016.79,11111222 
COMPS,ioos:station:USF.COMPS:C13:1,2019-05-19T17:35:00,26.0630,-83.0730,1016.99,11111222 
COMPS,ioos:station:USF.COMPS:C13:1,2019-05-19T18:35:00,26.0630,-83.0730,1016.7,11111222 
COMPS,ioos:station:USF.COMPS:C13:1,2019-05-19T19:35:00,26.0630,-83.0730,1015.86,11111222 
COMPS,ioos:station:USF.COMPS:C13:1,2019-05-19T20:35:00,26.0630,-83.0730,1015.21,11111222 
COMPS,ioos:station:USF.COMPS:C13:1,2019-05-19T21:35:00,26.0630,-83.0730,1015.02,11111222 
COMPS,ioos:station:USF.COMPS:C13:1,2019-05-19T22:35:00,26.0630,-83.0730,1014.83,11111222 
COMPS,ioos:station:USF.COMPS:C13:1,2019-05-19T23:35:00,26.0630,-83.0730,1014.75,11111222 
COMPS,ioos:station:USF.COMPS:C13:1,2019-05-20T00:35:00,26.0630,-83.0730,1015.31,11111222 
COMPS,ioos:station:USF.COMPS:C13:1,2019-05-20T01:35:00,26.0630,-83.0730,1016.03,11111222 
COMPS,ioos:station:USF.COMPS:C13:1,2019-05-20T02:35:00,26.0630,-83.0730,1016.14,11111222 
COMPS,ioos:station:USF.COMPS:C13:1,2019-05-20T03:35:00,26.0630,-83.0730,1016.61,11111222 
COMPS,ioos:station:USF.COMPS:C13:1,2019-05-20T04:35:00,26.0630,-83.0730,1016.65,11111222 
COMPS,ioos:station:USF.COMPS:C13:1,2019-05-20T05:35:00,26.0630,-83.0730,1016.18,11111222 
COMPS,ioos:station:USF.COMPS:C13:1,2019-05-20T06:35:00,26.0630,-83.0730,1015.46,11111222 
COMPS,ioos:station:USF.COMPS:C13:1,2019-05-20T07:35:00,26.0630,-83.0730,1015.24,11111222 
COMPS,ioos:station:USF.COMPS:C13:1,2019-05-20T08:35:00,26.0630,-83.0730,1015.34,11111222 
COMPS,ioos:station:USF.COMPS:C13:1,2019-05-20T09:35:00,26.0630,-83.0730,1015.61,11111222 
COMPS,ioos:station:USF.COMPS:C13:1,2019-05-20T10:35:00,26.0630,-83.0730,1015.9,11111222 
COMPS,ioos:station:USF.COMPS:C13:1,2019-05-20T11:35:00,26.0630,-83.0730,1016.45,11111222 
COMPS,ioos:station:USF.COMPS:C13:1,2019-05-20T12:35:00,26.0630,-83.0730,1016.79,11111222 
COMPS,ioos:station:USF.COMPS:C13:1,2019-05-20T13:35:00,26.0630,-83.0730,1017.09,11111222 
COMPS,ioos:station:USF.COMPS:C13:1,2019-05-20T14:35:00,26.0630,-83.0730,1017.1,11111222 
COMPS,ioos:station:USF.COMPS:C13:1,2019-05-20T15:35:00,26.0630,-83.0730,1017.25,11111222 
COMPS,ioos:station:USF.COMPS:C13:1,2019-05-20T16:35:00,26.0630,-83.0730,1016.9,11111222 
COMPS,ioos:station:USF.COMPS:C13:1,2019-05-20T17:35:00,26.0630,-83.0730,1016.56,11111222 
COMPS,ioos:station:USF.COMPS:C13:1,2019-05-20T18:35:00,26.0630,-83.0730,1016.04,11111222 
COMPS,ioos:station:USF.COMPS:C13:1,2019-05-20T19:35:00,26.0630,-83.0730,1015.39,11111222 
COMPS,ioos:station:USF.COMPS:C13:1,2019-05-20T20:35:00,26.0630,-83.0730,1014.94,11111222 
COMPS,ioos:station:USF.COMPS:C13:1,2019-05-20T21:35:00,26.0630,-83.0730,1014.72,11111222 
COMPS,ioos:station:USF.COMPS:C13:1,2019-05-20T22:35:00,26.0630,-83.0730,1014.53,11111222 
COMPS,ioos:station:USF.COMPS:C13:1,2019-05-20T23:35:00,26.0630,-83.0730,1014.3,11111222 
COMPS,ioos:station:USF.COMPS:C13:1,2019-05-21T00:35:00,26.0630,-83.0730,1014.04,11111222 
COMPS,ioos:station:USF.COMPS:C13:1,2019-05-21T01:35:00,26.0630,-83.0730,1014.18,11111222 
COMPS,ioos:station:USF.COMPS:C13:1,2019-05-21T02:35:00,26.0630,-83.0730,1014.72,11111222 
COMPS,ioos:station:USF.COMPS:C13:1,2019-05-21T03:35:00,26.0630,-83.0730,1014.85,11111222 
COMPS,ioos:station:USF.COMPS:C13:1,2019-05-21T04:35:00,26.0630,-83.0730,1014.99,11111222 
COMPS,ioos:station:USF.COMPS:C13:1,2019-05-21T05:35:00,26.0630,-83.0730,1014.49,11111222 
COMPS,ioos:station:USF.COMPS:C13:1,2019-05-21T06:35:00,26.0630,-83.0730,1013.75,11111222 
COMPS,ioos:station:USF.COMPS:C13:1,2019-05-21T08:35:00,26.0630,-83.0730,1012.83,11111222 
COMPS,ioos:station:USF.COMPS:C13:1,2019-05-21T09:35:00,26.0630,-83.0730,1012.91,11111222 
COMPS,ioos:station:USF.COMPS:C13:1,2019-05-21T10:35:00,26.0630,-83.0730,1013.21,11111222 
COMPS,ioos:station:USF.COMPS:C13:1,2019-05-21T11:35:00,26.0630,-83.0730,1013.97,11111222 
COMPS,ioos:station:USF.COMPS:C13:1,2019-05-21T12:35:00,26.0630,-83.0730,1014.4,11111222 
COMPS,ioos:station:USF.COMPS:C13:1,2019-05-21T13:35:00,26.0630,-83.0730,1014.75,11111222 
COMPS,ioos:station:USF.COMPS:C13:1,2019-05-21T14:35:00,26.0630,-83.0730,1014.95,11111222 
COMPS,ioos:station:USF.COMPS:C13:1,2019-05-21T15:35:00,26.0630,-83.0730,1015.15,11111222 
COMPS,ioos:station:USF.COMPS:C13:1,2019-05-21T16:35:00,26.0630,-83.0730,1014.92,11111222 
COMPS,ioos:station:USF.COMPS:C13:1,2019-05-21T17:35:00,26.0630,-83.0730,1014.45,11111222 
COMPS,ioos:station:USF.COMPS:C13:1,2019-05-21T18:35:00,26.0630,-83.0730,1014.2,11111222 
COMPS,ioos:station:USF.COMPS:C13:1,2019-05-21T19:35:00,26.0630,-83.0730,1013.72,11111222 
COMPS,ioos:station:USF.COMPS:C13:1,2019-05-21T20:35:00,26.0630,-83.0730,1013.52,11111222 
COMPS,ioos:station:USF.COMPS:C13:1,2019-05-21T21:35:00,26.0630,-83.0730,1013.47,11111222 
COMPS,ioos:station:USF.COMPS:C13:1,2019-05-21T22:35:00,26.0630,-83.0730,1013.25,11111222 
COMPS,ioos:station:USF.COMPS:C13:1,2019-05-21T23:35:00,26.0630,-83.0730,1012.99,11111222 
COMPS,ioos:station:USF.COMPS:C13:1,2019-05-22T00:35:00,26.0630,-83.0730,1013.46,11111222 
COMPS,ioos:station:USF.COMPS:C13:1,2019-05-22T01:35:00,26.0630,-83.0730,1014.04,11111222 
COMPS,ioos:station:USF.COMPS:C13:1,2019-05-22T02:35:00,26.0630,-83.0730,1014.64,11111222 
COMPS,ioos:station:USF.COMPS:C13:1,2019-05-22T03:35:00,26.0630,-83.0730,1015.26,11111222 
COMPS,ioos:station:USF.COMPS:C13:1,2019-05-22T04:35:00,26.0630,-83.0730,1015.3,11111222 
COMPS,ioos:station:USF.COMPS:C13:1,2019-05-22T05:35:00,26.0630,-83.0730,1015.47,11111222 
COMPS,ioos:station:USF.COMPS:C13:1,2019-05-22T06:35:00,26.0630,-83.0730,1015.04,11111222 
COMPS,ioos:station:USF.COMPS:C13:1,2019-05-22T07:35:00,26.0630,-83.0730,1014.87,11111222 
COMPS,ioos:station:USF.COMPS:C13:1,2019-05-22T08:35:00,26.0630,-83.0730,1014.98,11111222 
COMPS,ioos:station:USF.COMPS:C13:1,2019-05-22T09:35:00,26.0630,-83.0730,1015.07,11111222 
COMPS,ioos:station:USF.COMPS:C13:1,2019-05-22T10:35:00,26.0630,-83.0730,1015.61,11111222 
COMPS,ioos:station:USF.COMPS:C13:1,2019-05-22T11:35:00,26.0630,-83.0730,1016.11,11111222 
COMPS,ioos:station:USF.COMPS:C13:1,2019-05-22T12:35:00,26.0630,-83.0730,1016.43,11111222 
COMPS,ioos:station:USF.COMPS:C13:1,2019-05-22T13:35:00,26.0630,-83.0730,1016.91,11111222 
COMPS,ioos:station:USF.COMPS:C13:1,2019-05-22T14:35:00,26.0630,-83.0730,1017.09,11111222 
COMPS,ioos:station:USF.COMPS:C13:1,2019-05-22T15:35:00,26.0630,-83.0730,1017.51,11111222 
COMPS,ioos:station:USF.COMPS:C13:1,2019-05-22T16:35:00,26.0630,-83.0730,1017.68,11111222 
COMPS,ioos:station:USF.COMPS:C13:1,2019-05-22T17:35:00,26.0630,-83.0730,1017.76,11111222 
COMPS,ioos:station:USF.COMPS:C13:1,2019-05-22T18:35:00,26.0630,-83.0730,1017.6,11111222 
COMPS,ioos:station:USF.COMPS:C13:1,2019-05-22T19:35:00,26.0630,-83.0730,1017.37,11111222 
COMPS,ioos:station:USF.COMPS:C13:1,2019-05-22T20:35:00,26.0630,-83.0730,1016.92,11111222 
COMPS,ioos:station:USF.COMPS:C13:1,2019-05-22T21:35:00,26.0630,-83.0730,1016.91,11111222 
COMPS,ioos:station:USF.COMPS:C13:1,2019-05-22T22:35:00,26.0630,-83.0730,1016.63,11111222 
COMPS,ioos:station:USF.COMPS:C13:1,2019-05-22T23:35:00,26.0630,-83.0730,1016.78,11111222 
COMPS,ioos:station:USF.COMPS:C13:1,2019-05-23T00:35:00,26.0630,-83.0730,1017.3,11111222 
COMPS,ioos:station:USF.COMPS:C13:1,2019-05-23T01:35:00,26.0630,-83.0730,1017.89,11111222 
COMPS,ioos:station:USF.COMPS:C13:1,2019-05-23T02:35:00,26.0630,-83.0730,1018.53,11111222 
COMPS,ioos:station:USF.COMPS:C13:1,2019-05-23T03:35:00,26.0630,-83.0730,1018.88,11111222 
COMPS,ioos:station:USF.COMPS:C13:1,2019-05-23T04:35:00,26.0630,-83.0730,1019.08,11111222 
COMPS,ioos:station:USF.COMPS:C13:1,2019-05-23T05:35:00,26.0630,-83.0730,1018.75,11111222 
COMPS,ioos:station:USF.COMPS:C13:1,2019-05-23T06:35:00,26.0630,-83.0730,1018.49,11111222 
COMPS,ioos:station:USF.COMPS:C13:1,2019-05-23T07:35:00,26.0630,-83.0730,1018.0,11111222 
COMPS,ioos:station:USF.COMPS:C13:1,2019-05-23T08:35:00,26.0630,-83.0730,1017.96,11111222 
COMPS,ioos:station:USF.COMPS:C13:1,2019-05-23T09:35:00,26.0630,-83.0730,1018.16,11111222 
COMPS,ioos:station:USF.COMPS:C13:1,2019-05-23T10:35:00,26.0630,-83.0730,1018.19,11111222 
COMPS,ioos:station:USF.COMPS:C13:1,2019-05-23T11:35:00,26.0630,-83.0730,1018.88,11111222 
COMPS,ioos:station:USF.COMPS:C13:1,2019-05-23T12:35:00,26.0630,-83.0730,1019.13,11111222 
COMPS,ioos:station:USF.COMPS:C13:1,2019-05-23T13:35:00,26.0630,-83.0730,1019.57,11111222 
COMPS,ioos:station:USF.COMPS:C13:1,2019-05-23T14:35:00,26.0630,-83.0730,1019.78,11111222 
COMPS,ioos:station:USF.COMPS:C13:1,2019-05-23T15:35:00,26.0630,-83.0730,1020.12,11111222 
COMPS,ioos:station:USF.COMPS:C13:1,2019-05-23T16:35:00,26.0630,-83.0730,1020.13,11111222 
COMPS,ioos:station:USF.COMPS:C13:1,2019-05-23T17:35:00,26.0630,-83.0730,1019.77,11111222 
COMPS,ioos:station:USF.COMPS:C13:1,2019-05-23T19:35:00,26.0630,-83.0730,1018.94,11111222 